| time (UTC) | temp F | wind direction | speed MPH | gust MPH | rain 1hr in | rain 24hr in | rain mn in | humidity % | barometer mb |
| 20260502221253 | 61 | 286 | 1.0 | 6.0 | 0.00 | 0.00 | 0.00 | 50 | 1018.8 |
| 20260502215752 | 61 | 311 | 1.0 | 4.0 | 0.00 | 0.00 | 0.00 | 49 | 1019.0 |
| 20260502214251 | 62 | 305 | 1.0 | 4.0 | 0.00 | 0.00 | 0.00 | 50 | 1019.1 |
| 20260502212751 | 62 | 274 | 2.0 | 6.0 | 0.00 | 0.00 | 0.00 | 51 | 1019.3 |
| 20260502211250 | 62 | 305 | 1.0 | 3.0 | 0.00 | 0.00 | 0.00 | 51 | 1019.2 |
| 20260502205749 | 61 | 291 | 2.0 | 7.0 | 0.00 | 0.00 | 0.00 | 51 | 1019.2 |
| 20260502204248 | 61 | 256 | 2.0 | 7.0 | 0.00 | 0.00 | 0.00 | 51 | 1019.2 |
| 20260502202747 | 61 | 324 | 2.0 | 4.0 | 0.00 | 0.00 | 0.00 | 52 | 1019.0 |
| 20260502201246 | 62 | 310 | 1.0 | 3.0 | 0.00 | 0.00 | 0.00 | 53 | 1019.0 |
| 20260502195745 | 62 | 286 | 2.0 | 4.0 | 0.00 | 0.00 | 0.00 | 53 | 1018.7 |
| 20260502194245 | 62 | 232 | 2.0 | 7.0 | 0.00 | 0.00 | 0.00 | 53 | 1018.8 |
| 20260502192744 | 62 | 264 | 3.0 | 8.0 | 0.00 | 0.00 | 0.00 | 54 | 1018.8 |
| 20260502191243 | 62 | 269 | 2.0 | 7.0 | 0.00 | 0.00 | 0.00 | 56 | 1018.7 |
| 20260502185742 | 62 | 255 | 3.0 | 8.0 | 0.00 | 0.00 | 0.00 | 58 | 1018.8 |
| 20260502184241 | 63 | 302 | 2.0 | 4.0 | 0.00 | 0.00 | 0.00 | 59 | 1018.7 |
| 20260502182740 | 63 | 283 | 3.0 | 7.0 | 0.00 | 0.00 | 0.00 | 61 | 1018.8 |
| 20260502181239 | 63 | 302 | 3.0 | 9.0 | 0.00 | 0.00 | 0.00 | 62 | 1018.6 |
| 20260502164234 | 65 | 329 | 4.0 | 10.0 | 0.00 | 0.00 | 0.00 | 68 | 1019.5 |
| 20260502162733 | 65 | 250 | 5.0 | 11.0 | 0.00 | 0.00 | 0.00 | 69 | 1019.3 |
| 20260502161233 | 65 | 306 | 6.0 | 10.0 | 0.00 | 0.00 | 0.00 | 68 | 1019.3 |
| 20260502151229 | 66 | 302 | 4.0 | 10.0 | 0.00 | 0.00 | 0.00 | 68 | 1020.0 |
| 20260502122720 | 68 | 315 | 2.0 | 10.0 | 0.00 | 0.00 | 0.00 | 66 | 1021.4 |
| 20260502121219 | 67 | 5 | 2.0 | 4.0 | 0.00 | 0.00 | 0.00 | 67 | 1021.5 |
| 20260502115718 | 67 | 290 | 4.0 | 11.0 | 0.00 | 0.00 | 0.00 | 67 | 1021.6 |
| 20260502114217 | 66 | 264 | 3.0 | 7.0 | 0.00 | 0.00 | 0.00 | 67 | 1021.7 |
| 20260502112716 | 66 | 223 | 2.0 | 5.0 | 0.00 | 0.00 | 0.00 | 68 | 1021.9 |
| 20260502111215 | 65 | 240 | 2.0 | 6.0 | 0.00 | 0.00 | 0.00 | 68 | 1022.0 |
| 20260502105715 | 65 | 253 | 3.0 | 6.0 | 0.00 | 0.00 | 0.00 | 68 | 1022.0 |
| 20260502104214 | 64 | 281 | 3.0 | 8.0 | 0.00 | 0.00 | 0.00 | 68 | 1022.2 |
| 20260502102713 | 65 | 303 | 3.0 | 7.0 | 0.00 | 0.00 | 0.00 | 68 | 1022.4 |
| 20260502101212 | 65 | 256 | 1.0 | 4.0 | 0.00 | 0.00 | 0.00 | 68 | 1022.6 |
| 20260502091209 | 63 | 309 | 1.0 | 4.0 | 0.00 | 0.00 | 0.00 | 63 | 1022.8 |
| 20260502071202 | 62 | 329 | 1.0 | 3.0 | 0.00 | 0.00 | 0.00 | 57 | 1022.9 |
| 20260502065701 | 62 | 313 | 1.0 | 3.0 | 0.00 | 0.00 | 0.00 | 56 | 1022.9 |
| 20260502064200 | 62 | 311 | 1.0 | 4.0 | 0.00 | 0.00 | 0.00 | 55 | 1022.8 |
| 20260502062659 | 61 | 275 | 2.0 | 6.0 | 0.00 | 0.00 | 0.00 | 53 | 1022.6 |
| 20260502061158 | 61 | 263 | 2.0 | 6.0 | 0.00 | 0.00 | 0.00 | 53 | 1022.7 |
| 20260502055658 | 61 | 261 | 1.0 | 4.0 | 0.00 | 0.00 | 0.00 | 52 | 1022.6 |
| 20260502054157 | 61 | 264 | 1.0 | 4.0 | 0.00 | 0.00 | 0.00 | 52 | 1022.5 |
| 20260502052656 | 61 | 242 | 2.0 | 5.0 | 0.00 | 0.00 | 0.00 | 52 | 1022.5 |
| 20260502051155 | 61 | 234 | 1.0 | 6.0 | 0.00 | 0.00 | 0.00 | 53 | 1022.5 |
| 20260502045654 | 61 | 256 | 2.0 | 4.0 | 0.00 | 0.00 | 0.00 | 53 | 1022.4 |
| 20260502044153 | 61 | 246 | 2.0 | 7.0 | 0.00 | 0.00 | 0.00 | 53 | 1022.4 |
| 20260502042652 | 61 | 292 | 3.0 | 4.0 | 0.00 | 0.00 | 0.00 | 53 | 1022.4 |
| 20260502041152 | 61 | 289 | 3.0 | 6.0 | 0.00 | 0.00 | 0.00 | 53 | 1022.4 |
| 20260502035651 | 61 | 300 | 3.0 | 5.0 | 0.00 | 0.00 | 0.00 | 52 | 1022.3 |
| 20260502034150 | 61 | 307 | 3.0 | 8.0 | 0.00 | 0.00 | 0.00 | 51 | 1022.4 |
| 20260502032649 | 62 | 296 | 2.0 | 5.0 | 0.00 | 0.00 | 0.00 | 50 | 1022.3 |
| 20260502031148 | 62 | 300 | 2.0 | 5.0 | 0.00 | 0.00 | 0.00 | 50 | 1022.4 |
| 20260502025647 | 62 | 313 | 2.0 | 4.0 | 0.00 | 0.00 | 0.00 | 51 | 1022.4 |
| 20260502024146 | 62 | 244 | 2.0 | 7.0 | 0.00 | 0.00 | 0.00 | 50 | 1022.5 |
| 20260502022646 | 62 | 263 | 2.0 | 6.0 | 0.00 | 0.00 | 0.00 | 51 | 1022.5 |
| 20260502021145 | 62 | 263 | 2.0 | 4.0 | 0.00 | 0.00 | 0.00 | 52 | 1022.6 |
| 20260502015644 | 62 | 244 | 1.0 | 7.0 | 0.00 | 0.00 | 0.00 | 55 | 1022.6 |
| 20260502014143 | 62 | 331 | 0.0 | 3.0 | 0.00 | 0.00 | 0.00 | 56 | 1022.7 |
| 20260502012642 | 62 | 265 | 0.0 | 2.0 | 0.00 | 0.00 | 0.00 | 56 | 1022.7 |
| 20260502011141 | 62 | 271 | 1.0 | 3.0 | 0.00 | 0.00 | 0.00 | 56 | 1022.9 |
| 20260502005640 | 62 | 271 | 2.0 | 6.0 | 0.00 | 0.00 | 0.00 | 57 | 1023.0 |
| 20260502004140 | 62 | 288 | 1.0 | 3.0 | 0.00 | 0.00 | 0.00 | 55 | 1023.2 |
| 20260502002639 | 62 | 288 | 0.0 | 0.0 | 0.00 | 0.00 | 0.00 | 53 | 1023.5 |
| 20260502001138 | 62 | 289 | 0.0 | 2.0 | 0.00 | 0.00 | 0.00 | 50 | 1023.6 |
| 20260501235637 | 61 | 289 | 0.0 | 0.0 | 0.00 | 0.00 | 0.00 | 48 | 1023.8 |
| 20260501234136 | 61 | 289 | 1.0 | 4.0 | 0.00 | 0.00 | 0.00 | 48 | 1023.9 |
| 20260501232635 | 62 | 292 | 0.0 | 3.0 | 0.00 | 0.00 | 0.00 | 48 | 1023.9 |
| 20260501231134 | 62 | 0 | 0.0 | 2.0 | 0.00 | 0.00 | 0.00 | 47 | 1024.0 |
| 20260501225634 | 61 | 0 | 0.0 | 0.0 | 0.00 | 0.00 | 0.00 | 46 | 1023.8 |
| 20260501224133 | 61 | 0 | 0.0 | 3.0 | 0.00 | 0.00 | 0.00 | 46 | 1023.7 |
| 20260501222632 | 61 | 342 | 0.0 | 2.0 | 0.00 | 0.00 | 0.00 | 46 | 1023.7 |